Weather History for Fairhope, AL

Change the Weather History Date:

Monday, December 31, 2012

  Actual Average (KBFM) Record (KBFM)
Temperature  
Mean Temperature 50 °F -  
Max Temperature 62 °F 56 °F 72 °F (1996)
Min Temperature 37 °F 38 °F 19 °F (2000)
Degree Days  
Heating Degree Days 16    
Moisture  
Dew Point 44 °F    
Average Humidity 76    
Maximum Humidity 94    
Minimum Humidity 63    
Precipitation  
Precipitation 0.00 in - - ()
Sea Level Pressure  
Sea Level Pressure 30.25 in    
Wind  
Wind Speed 5 mph (ENE)    
Max Wind Speed 9 mph    
Max Gust Speed -    
Visibility 8 miles    
Events      
Averages and records for this station are not official NWS values.
T = Trace of Precipitation, MM = Missing Value Source: NWS Daily Summary

Daily Weather History Graph

Daily Weather History Graph

Search for Another Location

Airport:

Trip Planner

Search our weather history database for the weather conditions in past years. The results will help you decide how hot, cold, wet, or windy it might be!

Date:

Astronomy

Dec. 31, 2012 Rise Set
Actual Time 6:48 AM CST 5:01 PM CST
Civil Twilight 6:21 AM CST 5:27 PM CST
Nautical Twilight 5:51 AM CST 5:57 PM CST
Astronomical Twilight 5:22 AM CST 6:27 PM CST
Moon 8:16 PM CST (12/31) 8:43 AM CST (12/31)
Length of Visible Light 11h 05m
Length of Day
10h 13m
Waning Gibbous, 90% of the Moon is Illuminated
Dec 31
Waning Gibbous
Jan 4
Last Quarter
Jan 11
New
Jan 18
First Quarter
Jan 26
Full

Hourly Weather History & Observations

Time (CST) Temp. Windchill Dew Point Humidity Pressure Visibility Wind Dir Wind Speed Gust Speed Precip Events Conditions
12:15 AM 37.4 °F 33.8 °F 32.0 °F 81% 30.36 in 10.0 mi NE 4.6 mph - N/A   Clear
12:35 AM 37.4 °F 33.8 °F 32.0 °F 81% 30.36 in 10.0 mi NE 4.6 mph - N/A   Clear
12:55 AM 37.4 °F 34.9 °F 32.0 °F 81% 30.35 in 10.0 mi NE 3.5 mph - N/A   Clear
1:15 AM 37.4 °F 32.8 °F 32.0 °F 81% 30.34 in 10.0 mi NE 5.8 mph - N/A   Clear
1:35 AM 37.4 °F 33.8 °F 32.0 °F 81% 30.34 in 10.0 mi NE 4.6 mph - N/A   Clear
1:55 AM 37.4 °F 33.8 °F 32.0 °F 81% 30.34 in 10.0 mi NE 4.6 mph - N/A   Clear
2:15 AM 37.4 °F 32.8 °F 32.0 °F 81% 30.34 in 10.0 mi NE 5.8 mph - N/A   Clear
2:35 AM 37.4 °F 32.8 °F 32.0 °F 81% 30.32 in 10.0 mi NE 5.8 mph - N/A   Clear
2:55 AM 39.2 °F 35.0 °F 32.0 °F 75% 30.33 in 10.0 mi NE 5.8 mph - N/A   Clear
3:15 AM 39.2 °F 35.9 °F 32.0 °F 75% 30.32 in 10.0 mi NE 4.6 mph - N/A   Clear
3:35 AM 37.4 °F 32.8 °F 32.0 °F 81% 30.32 in 10.0 mi NE 5.8 mph - N/A   Clear
3:55 AM 39.2 °F 35.0 °F 32.0 °F 75% 30.32 in 10.0 mi NE 5.8 mph - N/A   Clear
4:15 AM 39.2 °F 35.0 °F 32.0 °F 75% 30.32 in 10.0 mi NNE 5.8 mph - N/A   Clear
4:35 AM 39.2 °F 35.9 °F 32.0 °F 75% 30.33 in 10.0 mi NNE 4.6 mph - N/A   Clear
5:15 AM 39.2 °F 34.2 °F 32.0 °F 75% 30.32 in 10.0 mi NE 6.9 mph - N/A   Clear
5:55 AM 39.2 °F 35.0 °F 32.0 °F 75% 30.30 in 10.0 mi ENE 5.8 mph - N/A   Clear
6:15 AM 39.2 °F 35.9 °F 32.0 °F 75% 30.31 in 10.0 mi NE 4.6 mph - N/A   Clear
6:35 AM 39.2 °F 35.9 °F 32.0 °F 75% 30.31 in 10.0 mi NE 4.6 mph - N/A   Clear
6:55 AM 41.0 °F 37.1 °F 32.0 °F 70% 30.31 in 10.0 mi NE 5.8 mph - N/A   Mostly Cloudy
7:15 AM 41.0 °F 35.8 °F 33.8 °F 76% 30.31 in 10.0 mi NE 8.1 mph - N/A   Overcast
7:35 AM 42.8 °F 39.3 °F 33.8 °F 70% 30.32 in 10.0 mi NE 5.8 mph - N/A   Overcast
8:15 AM 44.6 °F 42.2 °F 35.6 °F 71% 30.34 in 10.0 mi NE 4.6 mph - N/A   Mostly Cloudy
8:35 AM 44.6 °F 40.2 °F 37.4 °F 76% 30.34 in 10.0 mi NE 8.1 mph - N/A   Overcast
8:55 AM 46.4 °F 43.5 °F 37.4 °F 71% 30.33 in 10.0 mi NNE 5.8 mph - N/A   Overcast
9:15 AM 48.2 °F - 39.2 °F 71% 30.33 in 10.0 mi NNE 8.1 mph - N/A   Overcast
9:35 AM 50.0 °F - 41.0 °F 71% 30.34 in 10.0 mi NE 6.9 mph - N/A   Overcast
9:55 AM 51.8 °F - 41.0 °F 67% 30.34 in 10.0 mi NNE 9.2 mph - N/A   Overcast
10:15 AM 51.8 °F - 42.8 °F 71% 30.34 in 10.0 mi NE 8.1 mph - N/A   Overcast
10:35 AM 53.6 °F - 42.8 °F 67% 30.34 in 10.0 mi NE 6.9 mph - N/A   Overcast
10:55 AM 53.6 °F - 44.6 °F 72% 30.33 in 10.0 mi NE 6.9 mph - N/A   Overcast
11:15 AM 55.4 °F - 44.6 °F 67% 30.31 in 10.0 mi NE 6.9 mph - N/A   Overcast
11:35 AM 57.2 °F - 46.4 °F 67% 30.31 in 5.0 mi NE 6.9 mph - N/A   Haze
11:55 AM 59.0 °F - 46.4 °F 63% 30.29 in 4.0 mi NE 6.9 mph - N/A   Haze
12:15 PM 60.8 °F - 48.2 °F 63% 30.28 in 7.0 mi ENE 8.1 mph - N/A   Overcast
12:35 PM 60.8 °F - 48.2 °F 63% 30.25 in 7.0 mi NE 6.9 mph - N/A   Overcast
12:55 PM 60.8 °F - 50.0 °F 68% 30.24 in 7.0 mi NE 6.9 mph - N/A   Overcast
1:35 PM 62.6 °F - 50.0 °F 63% 30.22 in 7.0 mi ENE 6.9 mph - N/A   Overcast
1:55 PM 62.6 °F - 51.8 °F 68% 30.21 in 7.0 mi ENE 6.9 mph - N/A   Overcast
2:15 PM 62.6 °F - 51.8 °F 68% 30.20 in 7.0 mi East 5.8 mph - N/A   Overcast
2:35 PM 62.6 °F - 51.8 °F 68% 30.20 in 5.0 mi East 6.9 mph - N/A   Haze
2:55 PM 62.6 °F - 51.8 °F 68% 30.19 in 7.0 mi East 5.8 mph - N/A   Overcast
3:15 PM 62.6 °F - 51.8 °F 68% 30.19 in 10.0 mi ENE 4.6 mph - N/A   Overcast
3:35 PM 62.6 °F - 51.8 °F 68% 30.19 in 7.0 mi East 6.9 mph - N/A   Overcast
3:55 PM 62.6 °F - 53.6 °F 72% 30.18 in 7.0 mi ENE 6.9 mph - N/A   Overcast
4:15 PM 62.6 °F - 51.8 °F 68% 30.19 in 7.0 mi ENE 3.5 mph - N/A   Overcast
4:35 PM 62.6 °F - 51.8 °F 68% 30.19 in 7.0 mi ENE 3.5 mph - N/A   Overcast
4:55 PM 60.8 °F - 53.6 °F 77% 30.19 in 5.0 mi Calm Calm - N/A   Haze
5:35 PM 60.8 °F - 51.8 °F 72% 30.18 in 7.0 mi ENE 5.8 mph - N/A   Overcast
5:55 PM 59.0 °F - 51.8 °F 77% 30.19 in 7.0 mi East 4.6 mph - N/A   Mostly Cloudy
6:15 PM 59.0 °F - 51.8 °F 77% 30.19 in 7.0 mi East 4.6 mph - N/A   Clear
6:35 PM 59.0 °F - 51.8 °F 77% 30.18 in 10.0 mi East 4.6 mph - N/A   Clear
6:55 PM 59.0 °F - 51.8 °F 77% 30.19 in 7.0 mi ENE 3.5 mph - N/A   Clear
7:15 PM 59.0 °F - 51.8 °F 77% 30.19 in 7.0 mi NE 3.5 mph - N/A   Mostly Cloudy
7:35 PM 59.0 °F - 51.8 °F 77% 30.18 in 7.0 mi ENE 3.5 mph - N/A   Overcast
8:15 PM 57.2 °F - 51.8 °F 82% 30.18 in 7.0 mi ENE 4.6 mph - N/A   Mostly Cloudy
8:35 PM 55.4 °F - 51.8 °F 88% 30.18 in 5.0 mi ENE 4.6 mph - N/A   Scattered Clouds
8:55 PM 57.2 °F - 53.6 °F 88% 30.16 in 7.0 mi East 4.6 mph - N/A   Mostly Cloudy
9:15 PM 57.2 °F - 53.6 °F 88% 30.16 in 7.0 mi East 3.5 mph - N/A   Overcast
9:35 PM 57.2 °F - 53.6 °F 88% 30.16 in 5.0 mi East 4.6 mph - N/A   Overcast
9:55 PM 55.4 °F - 53.6 °F 94% 30.14 in 5.0 mi East 4.6 mph - N/A   Overcast
10:15 PM 55.4 °F - 53.6 °F 94% 30.14 in 5.0 mi East 6.9 mph - N/A   Scattered Clouds
10:35 PM 55.4 °F - 53.6 °F 94% 30.13 in 5.0 mi ESE 6.9 mph - N/A   Clear
10:55 PM 57.2 °F - 55.4 °F 94% 30.13 in 5.0 mi ESE 4.6 mph - N/A   Scattered Clouds
11:15 PM 57.2 °F - 55.4 °F 94% 30.12 in 5.0 mi East 5.8 mph - N/A   Scattered Clouds
11:35 PM 57.2 °F - 55.4 °F 94% 30.12 in 5.0 mi ESE 6.9 mph - N/A   Clear
11:55 PM 59.0 °F - 55.4 °F 88% 30.11 in 5.0 mi ESE 4.6 mph - N/A   Clear